Lapse_Rate
6.5 6.5 6.5 6.5 6.5 6.5 6.5 6.5 6.5 6.5 6.5 6.5 6.5 6.5 5.9 4.5 4.7 5.3 5.9 5.9 6.5 6.9 7.6 7.7 7.7 7.8 8.0 7.9 8.1 7.7 7.8 8.1 7.7 7.8 7.8 8.2 8.4 8.3 8.6 8.6 8.4 8.4 7.0 6.6
6.5 6.5 6.5 6.5 6.5 6.5 6.5 6.5 6.5 6.5 6.5 6.5 5.9 0.7 3.6 5.0 5.6 6.0 5.4 6.0 6.7 7.0 7.5 7.4 7.7 7.8 7.9 7.8 7.8 7.9 7.1 7.0 7.6 8.1 7.9 8.2 8.2 8.1 8.6 8.5 8.4 8.8 7.5 6.9
6.5 6.5 6.5 6.5 6.5 6.5 6.5 6.5 6.5 6.5 6.5 6.6 6.6 5.7 5.0 5.7 5.7 4.6 5.2 6.0 6.4 6.8 7.1 7.3 7.7 7.5 7.1 7.3 6.9 6.7 6.7 6.2 7.2 7.5 7.8 8.1 8.2 8.2 8.5 8.2 8.1 8.6 7.7 7.3
6.5 6.5 6.5 6.5 6.5 6.5 6.5 6.5 6.5 6.5 6.5 6.2 4.7 1.4 1.7 3.4 2.6 4.1 5.3 4.5 5.6 6.8 6.8 6.9 6.9 6.9 7.2 6.9 5.9 5.8 6.1 6.2 5.9 6.7 7.8 8.0 7.9 8.2 8.4 8.3 8.2 8.5 7.5 7.9
6.5 6.5 6.5 6.5 6.5 6.5 6.5 6.5 6.5 6.5 6.5 4.3 -1.0 0.9 1.0 -0.4 -1.1 3.4 3.5 4.3 5.7 6.7 6.3 6.4 6.9 6.8 6.7 6.7 6.6 6.8 6.2 6.2 5.4 6.4 7.5 7.8 7.8 8.1 8.4 8.2 8.3 8.4 8.0 8.3
6.5 6.5 6.5 6.5 6.5 4.3 4.5 6.5 6.2 3.9 5.8 4.0 0.1 6.5 6.5 0.8 3.2 2.4 3.0 3.5 4.4 5.5 5.8 6.5 6.6 6.7 7.1 6.9 6.2 6.0 7.0 6.4 6.4 7.0 7.8 7.7 8.0 8.1 8.5 8.4 8.5 8.7 8.4 8.6
6.5 6.5 6.5 6.5 6.0 4.3 6.5 6.5 1.7 -0.1 0.8 -3.1 6.4 2.9 4.1 2.5 2.2 2.4 2.6 2.8 4.1 4.8 6.0 5.9 6.3 6.6 6.9 6.1 5.2 5.2 6.9 7.1 6.9 7.5 7.8 8.1 8.2 8.4 8.5 8.4 8.7 8.2 8.4 8.4
6.5 6.5 6.5 5.0 6.2 6.5 4.8 2.6 -0.6 -2.6 -2.8 -1.1 -0.1 0.9 1.6 2.5 2.1 2.3 1.5 2.0 2.0 4.2 5.0 5.3 6.1 6.7 6.4 5.7 5.2 7.0 8.2 8.1 8.1 7.9 8.6 8.9 8.4 8.5 8.4 8.4 8.1 7.9 8.2 8.1
6.5 6.5 5.9 4.4 4.1 0.3 0.2 1.1 -0.1 -3.1 -0.6 -1.8 0.9 1.2 2.9 3.0 2.7 2.1 1.5 1.9 2.2 4.4 4.7 4.9 5.4 6.3 6.5 5.5 4.6 6.7 7.4 8.1 7.8 8.2 8.8 8.7 8.1 8.1 7.9 8.2 7.7 7.8 7.8 7.6
6.5 6.5 6.2 5.9 3.2 1.5 1.1 0.5 0.5 -0.6 -1.1 -0.5 0.7 2.1 2.6 3.2 2.7 1.7 1.0 1.9 3.0 3.3 4.3 4.6 4.9 5.6 6.5 5.3 4.2 5.5 6.4 6.6 7.7 7.0 7.7 8.2 8.2 8.1 7.7 7.5 7.5 7.7 7.6 7.3
6.5 6.4 5.9 3.6 3.7 3.9 1.2 1.2 1.2 0.4 0.4 0.4 0.6 1.5 1.9 2.5 2.1 1.4 1.0 2.4 2.2 2.8 3.8 4.4 4.7 5.3 6.4 4.9 3.9 4.2 5.7 5.5 6.4 7.5 7.9 6.9 6.7 7.3 7.6 7.1 7.2 6.4 7.5 7.6
6.5 5.7 4.9 5.0 1.1 -1.1 -0.3 0.7 0.6 0.3 0.1 0.8 0.3 0.8 1.6 1.3 1.8 1.4 3.0 1.1 1.9 1.9 2.7 3.4 4.9 5.0 6.3 4.2 4.1 3.5 4.2 5.8 6.2 6.4 6.1 6.1 5.5 5.4 7.6 7.3 7.7 7.2 6.8 6.0
6.2 2.7 1.4 1.0 0.4 -0.5 0.4 0.6 -0.1 -0.6 0.1 -1.0 -0.9 -1.8 0.3 0.6 0.7 4.2 0.6 0.2 1.7 2.8 2.8 3.8 4.5 4.4 6.0 4.4 3.6 2.6 2.9 3.8 6.3 6.2 5.6 5.4 5.4 5.4 5.7 6.7 6.9 6.3 5.9 4.5
2.6 1.1 3.4 1.7 1.2 -1.2 -0.4 0.4 1.9 -1.5 -2.8 -1.7 -3.3 -1.5 -0.6 -0.3 0.3 0.7 0.7 0.6 1.6 2.3 2.6 4.2 3.8 5.0 5.0 4.5 4.0 2.7 2.1 3.2 4.2 4.7 4.4 5.6 6.1 5.4 5.2 6.0 5.6 5.2 5.4 3.7
5.2 1.5 4.7 -1.4 -1.2 -0.7 -0.6 -1.2 -0.4 0.2 -2.1 -3.3 -3.9 -4.1 -2.6 -2.6 -0.5 0.1 0.2 0.6 1.1 2.4 3.0 3.3 3.9 5.2 4.5 3.9 4.3 2.7 2.5 2.4 2.6 3.6 4.0 4.5 4.7 5.0 4.4 3.9 4.8 5.6 3.7 2.3
-2.0 -2.0 -1.3 0.5 0.9 -1.3 -1.2 -1.2 0.7 -0.1 -3.9 -5.6 -4.0 -2.1 -2.8 -2.7 -2.0 -1.2 -0.4 0.7 2.3 2.9 4.2 4.4 3.9 5.9 4.4 4.0 3.7 2.4 2.0 2.9 2.7 1.4 2.4 3.3 4.4 4.2 4.7 5.0 3.9 3.7 3.0 3.9
-0.5 0.9 -0.1 1.0 1.8 0.5 -1.0 -1.0 0.7 -0.2 -4.7 -3.1 -1.4 -3.0 -2.9 -2.1 -0.7 0.2 0.0 0.7 0.8 1.7 4.0 5.0 4.6 6.1 4.0 4.3 3.8 2.2 2.3 1.9 3.1 1.8 2.0 2.8 2.4 4.3 4.8 4.1 4.6 2.9 3.0 2.8
3.1 0.6 0.0 -1.7 -1.5 0.3 -0.1 -1.2 -1.4 -2.2 -3.4 -2.0 -2.0 -2.0 -3.0 -1.8 -1.3 -0.9 -0.5 0.0 0.2 2.3 4.3 3.9 6.6 6.5 3.6 3.2 4.5 2.2 2.2 2.3 2.6 2.3 2.4 2.2 2.4 1.8 2.1 2.4 2.0 2.0 0.4 0.9
-2.8 0.5 0.4 -0.1 -0.8 -0.5 -0.9 -1.9 -1.6 -1.6 -3.8 -2.7 -1.6 -0.7 -2.3 -2.3 -1.1 -1.2 -0.4 1.3 2.2 3.5 4.7 3.6 7.1 5.9 3.4 4.1 4.4 2.1 2.1 2.2 2.2 2.0 2.8 2.4 1.9 1.7 1.7 1.4 0.4 -0.1 -0.0 0.8
-2.5 -0.7 -0.9 -1.8 -0.8 -0.7 -2.3 -1.4 -1.6 -1.6 -2.0 -1.6 -0.4 -0.3 0.6 -0.1 -1.3 -0.2 -0.0 1.3 2.7 5.6 5.3 3.4 4.7 6.4 3.5 3.6 3.5 1.4 1.9 2.2 2.9 2.2 1.9 1.5 1.8 0.9 0.5 1.0 0.7 0.3 0.2 0.1
0.1 0.9 -1.0 -0.6 -0.2 -0.6 -0.6 -1.6 -0.9 0.3 -0.7 0.0 0.4 0.3 -0.7 -0.1 1.2 1.0 0.9 1.8 3.1 5.5 5.0 3.5 6.1 7.2 4.7 3.6 1.1 1.0 1.6 1.7 2.4 2.2 1.9 1.8 1.4 1.4 1.2 0.7 1.1 1.8 1.0 -0.6
0.7 1.0 0.5 -0.3 -0.4 -0.8 -0.7 -0.5 0.5 0.7 0.2 0.6 0.9 0.7 1.0 1.7 1.4 1.8 2.6 3.1 4.2 8.0 3.8 1.9 7.1 8.4 4.9 2.7 0.8 0.8 1.2 1.9 2.5 2.9 2.4 2.4 1.7 1.1 1.1 0.5 -0.8 -1.2 -0.6 0.1
2.5 1.1 0.7 0.1 0.1 -0.2 -0.3 0.2 1.0 0.9 1.0 1.8 1.5 1.0 0.5 0.4 0.5 2.0 1.2 2.7 3.8 6.0 2.8 3.1 7.9 6.3 4.5 0.1 0.8 0.7 0.8 1.3 2.9 3.1 2.5 2.7 2.4 2.2 1.7 1.4 1.2 0.7 0.6 0.6
1.7 0.6 0.1 0.7 0.4 0.7 0.4 0.6 0.8 0.6 1.1 1.1 1.3 1.5 1.2 0.6 1.2 1.5 1.7 3.1 4.6 4.7 3.4 4.2 4.9 5.5 3.4 0.5 0.5 0.3 1.0 0.9 2.5 3.5 2.6 2.8 1.9 1.9 1.7 1.1 1.2 1.1 0.7 0.4
2.0 0.8 0.4 0.6 0.9 1.2 1.0 0.5 0.3 0.3 1.1 0.7 2.0 2.2 2.2 1.5 1.4 2.1 0.6 1.4 2.9 2.8 1.2 2.2 3.3 3.6 1.5 0.7 0.9 0.3 0.4 1.3 3.2 3.1 3.2 2.4 2.1 1.9 1.7 1.5 1.4 2.4 1.1 0.4
1.9 1.6 1.0 0.9 0.9 0.5 0.6 0.5 1.0 1.2 1.8 2.1 1.6 2.0 2.4 2.0 1.8 0.5 -0.2 2.5 0.8 2.1 0.5 0.1 1.0 1.4 1.5 1.5 0.8 0.5 0.3 1.1 1.9 2.8 2.9 2.6 2.4 2.4 2.1 2.0 2.1 1.9 1.7 1.6
2.7 2.3 1.0 0.7 0.5 1.0 0.9 0.6 0.8 1.3 2.8 2.0 1.9 2.0 1.2 0.7 1.0 -0.1 1.8 -0.4 0.0 0.3 0.3 -0.3 -0.8 1.0 1.8 1.5 0.5 0.6 0.6 1.9 3.0 3.6 2.5 2.7 2.8 2.8 2.7 2.5 2.5 2.4 2.5 2.1
Wind_Speed
11 20 13 19 14 11 14 10 8 6 8 21 24 22 22 19 16 22 22 21 22 22 21 21 19 18 18 18 18 17 16 16 15 16 14 14 15 16 15 15 14 15 15 14
7 6 5 9 17 16 20 19 17 29 34 27 26 9 11 17 20 22 22 26 25 24 24 21 21 20 20 19 18 16 16 17 16 15 15 15 15 16 15 15 15 15 16 14
6 4 13 6 9 13 5 7 7 7 16 2 9 10 14 20 21 20 22 26 26 25 23 21 22 22 21 20 19 18 17 17 16 15 16 16 15 16 17 16 14 16 15 15
5 8 4 6 2 5 13 9 18 16 18 16 10 11 12 19 16 19 22 26 24 22 23 23 23 22 21 21 20 18 18 17 17 15 16 15 16 16 16 14 15 14 14 14
4 2 12 7 4 6 7 9 8 13 18 11 6 9 10 5 5 18 21 19 20 21 23 23 22 22 22 20 19 17 16 13 12 15 15 15 16 16 15 13 13 14 13 15
1 3 6 5 4 5 5 5 7 8 10 6 5 8 6 6 19 19 19 18 21 24 23 20 22 22 20 19 17 15 9 6 10 12 13 14 14 14 13 11 12 11 13 14
7 6 11 10 7 6 4 8 5 7 9 5 3 6 13 15 17 18 19 22 22 23 20 21 21 21 21 20 21 12 2 1 6 9 11 11 12 11 12 12 12 12 12 11
4 4 10 7 5 6 4 3 5 5 5 7 8 10 10 13 17 21 23 24 24 21 22 22 20 19 20 19 18 9 1 2 5 8 9 9 12 11 12 13 12 12 12 9
12 9 1 13 8 5 5 5 5 4 4 6 7 6 11 9 15 18 20 17 19 19 21 22 21 20 19 20 17 8 4 2 5 7 8 9 10 11 9 12 10 10 8 9
3 11 23 18 13 12 8 7 5 4 4 4 6 7 10 10 12 14 17 16 17 20 21 22 22 22 18 19 17 11 5 4 4 6 7 9 8 8 9 9 9 9 9 8
9 25 21 22 18 14 6 6 5 4 4 5 4 7 6 10 11 13 15 14 16 17 18 21 22 22 19 19 17 13 5 3 3 4 7 6 9 8 8 8 9 9 9 10
12 17 11 9 2 6 9 6 6 5 2 2 4 6 5 9 10 11 14 13 14 18 19 22 21 21 20 20 17 14 9 2 2 3 5 5 4 3 12 9 13 11 9 11
23 2 4 3 3 5 6 6 5 5 4 4 3 2 3 5 6 15 12 14 15 17 18 20 20 19 20 20 17 15 11 9 3 5 3 5 4 4 5 7 10 8 8 6
23 1 8 6 6 10 6 7 6 3 3 4 3 3 5 6 9 10 11 13 15 16 16 18 20 19 20 20 17 15 13 17 6 2 4 4 5 6 4 6 6 6 5 2
21 16 16 3 6 6 4 5 6 5 3 3 3 3 5 7 7 10 11 13 14 12 15 18 18 19 20 20 17 15 11 10 8 5 2 6 3 4 5 3 3 5 2 2
4 6 5 5 9 8 7 5 4 5 3 2 4 5 5 6 6 8 8 9 11 12 13 16 17 17 19 18 17 12 12 21 15 8 6 1 4 4 5 7 4 5 5 5
5 1 4 8 12 10 9 5 6 5 4 4 4 5 6 6 5 8 9 10 11 11 9 13 17 16 18 16 16 11 10 10 19 8 7 5 1 6 7 6 7 5 6 6
14 6 11 9 14 12 8 8 7 6 4 3 3 5 4 4 5 8 8 12 11 10 12 14 16 15 17 17 14 10 10 9 9 8 7 7 5 3 1 3 2 4 3 3
7 8 7 7 11 12 11 9 7 6 5 4 2 5 6 3 4 6 7 7 10 13 15 15 25 17 16 20 20 10 10 11 11 9 8 12 7 6 4 4 3 2 3 4
2 3 6 7 9 11 10 6 7 6 5 4 3 4 5 4 4 5 4 5 6 7 12 15 16 13 15 18 24 11 12 11 11 10 11 11 10 9 8 9 5 2 4 4
4 5 8 9 7 10 10 9 8 6 5 3 3 4 4 5 5 5 5 7 12 13 14 20 13 13 11 16 13 11 12 12 12 12 11 10 10 9 8 7 5 1 3 3
5 7 6 7 8 8 8 7 6 6 6 3 3 3 2 4 5 6 4 4 7 19 11 9 9 22 16 21 10 10 11 12 10 9 9 10 9 9 9 9 10 9 6 4
5 8 6 5 6 7 6 6 5 6 6 4 3 2 1 2 2 5 5 8 7 14 8 7 19 25 25 11 9 10 11 11 11 11 10 9 8 8 7 7 6 5 5 3
7 8 8 6 7 7 7 5 5 5 4 3 2 3 1 2 2 2 4 9 14 13 9 11 16 24 21 9 10 10 10 10 10 10 10 17 9 8 8 8 7 5 4 4
9 8 9 10 9 6 6 6 5 4 4 3 2 2 2 0 0 3 3 4 12 10 7 15 20 21 9 8 9 10 9 9 10 9 10 9 9 10 9 8 7 6 4 4
10 7 7 9 6 6 6 6 5 4 4 3 1 1 1 1 1 2 2 6 5 10 6 6 8 9 9 9 9 9 9 10 10 9 11 9 9 9 9 9 8 7 5 4
6 11 6 5 4 5 6 6 6 5 5 4 3 2 0 1 2 3 6 3 4 4 5 5 6 9 8 9 8 9 8 9 14 10 9 8 7 7 8 8 7 6 6 5
Wind_Direction
257 265 264 266 244 193 204 204 200 281 232 272 290 300 304 308 307 316 307 307 310 312 312 314 311 302 300 293 291 285 277 268 256 250 238 230 226 226 224 222 219 221 230 224
278 259 222 258 242 225 224 245 255 260 273 276 276 304 296 304 313 309 307 308 312 314 315 318 313 309 305 299 294 287 275 266 257 246 236 225 221 221 219 218 216 217 221 224
262 324 300 281 225 188 190 212 179 200 252 70 298 302 307 310 310 302 306 310 315 316 317 318 314 311 306 302 296 286 275 263 247 231 230 219 212 215 214 212 210 215 218 222
281 319 352 258 212 163 200 242 211 266 277 279 261 278 296 293 293 300 310 311 314 315 316 316 314 309 306 302 297 286 274 260 234 218 217 209 205 209 210 208 206 210 215 222
303 245 286 274 202 168 168 271 225 224 259 272 289 331 280 245 249 301 302 302 307 311 312 314 313 314 308 305 301 296 287 275 200 201 205 198 200 202 204 201 202 207 209 215
108 251 267 245 141 134 122 284 191 187 246 250 9 321 301 311 319 308 305 309 315 317 316 315 318 315 312 311 312 305 296 240 190 191 194 192 192 195 199 195 205 205 208 211
229 260 276 255 151 164 70 300 193 183 229 184 212 216 294 316 309 308 309 315 319 320 317 320 320 320 323 328 330 309 328 219 180 183 183 188 187 189 190 193 202 200 206 208
179 241 283 138 133 176 221 203 178 204 213 222 238 276 289 299 301 313 318 325 328 324 323 323 327 329 327 335 332 328 321 202 189 176 187 184 185 184 188 196 194 192 202 196
194 221 60 190 246 208 172 190 212 177 209 210 254 269 295 292 304 310 312 316 319 324 321 326 331 337 329 334 331 319 2 256 209 187 192 180 185 188 189 194 186 191 192 187
19 236 251 265 250 234 195 203 189 190 190 189 246 277 292 301 308 312 311 321 324 325 328 328 333 336 331 335 334 326 293 224 202 194 200 185 192 193 195 183 183 186 196 180
257 278 274 261 254 247 185 163 162 157 198 231 233 281 280 303 310 308 305 319 325 325 329 327 330 335 336 340 339 336 317 280 182 198 206 190 204 189 194 198 193 187 195 182
247 260 235 271 185 148 164 181 176 167 211 251 227 262 292 302 306 303 306 319 326 329 329 328 331 335 340 342 343 339 337 292 253 189 218 197 157 180 197 196 218 201 187 173
247 277 227 24 151 139 156 161 157 189 195 238 267 260 269 292 297 315 312 322 334 325 323 325 332 334 343 342 343 339 338 337 294 231 184 174 170 179 195 206 206 203 171 143
243 158 271 180 229 177 158 152 159 151 195 218 235 273 279 291 302 309 319 317 320 321 325 333 332 335 344 341 344 338 339 346 340 310 211 201 184 189 180 200 193 192 177 139
249 211 249 97 112 135 113 134 162 186 217 258 253 252 300 310 315 307 307 315 319 321 334 336 335 335 345 340 345 340 342 345 346 332 290 212 197 185 172 187 197 198 79 23
186 185 139 168 175 168 156 173 182 191 191 231 258 278 276 271 274 281 297 309 327 327 328 333 331 335 345 340 347 346 347 351 3 346 334 315 195 209 196 202 177 219 135 218
123 186 179 214 191 183 189 168 180 182 174 204 262 290 303 314 319 330 332 328 319 309 317 338 324 340 348 346 351 348 347 347 356 352 341 322 289 199 198 179 182 183 175 183
228 214 198 195 187 174 161 166 170 170 185 192 264 288 298 349 320 306 316 318 316 334 350 347 333 348 348 347 3 348 348 348 350 349 352 349 350 346 146 146 145 159 142 190
189 184 174 176 174 161 152 159 173 167 158 183 231 281 278 272 286 289 303 315 336 346 346 338 341 350 355 354 2 351 354 352 356 357 2 8 9 14 29 73 96 120 128 141
75 88 107 118 137 138 135 136 149 155 172 170 228 279 316 325 295 294 303 313 297 316 346 336 339 356 359 360 359 354 353 359 2 2 3 4 9 11 19 25 36 61 109 121
133 127 129 134 133 122 129 147 153 163 159 169 201 249 290 312 316 321 350 2 344 342 356 342 337 360 4 8 0 354 355 356 358 2 4 359 3 7 10 7 4 267 175 118
151 134 144 146 139 129 138 149 146 147 133 175 224 249 303 341 332 329 315 342 336 351 357 338 346 7 5 10 358 357 356 356 355 357 356 0 359 0 359 1 7 15 15 20
165 131 142 168 162 143 139 143 161 148 139 176 211 264 257 283 281 354 347 342 352 2 356 338 2 8 10 2 2 355 355 355 353 354 353 355 354 359 360 1 15 3 357 346
171 158 157 155 134 145 155 166 162 135 138 168 241 262 287 3 342 341 315 350 354 11 0 354 6 12 11 358 354 356 355 352 352 356 351 356 353 352 355 360 354 357 351 3
178 159 152 157 165 171 153 158 139 127 150 159 179 231 224 293 188 337 328 323 3 15 351 356 10 10 5 355 356 350 350 353 355 356 353 350 350 348 348 349 349 349 353 357
168 179 174 173 169 157 157 162 152 157 161 151 162 277 332 11 347 8 343 16 6 12 349 346 5 8 2 354 355 352 345 347 352 354 354 348 347 346 343 342 342 342 351 0
157 166 155 147 152 163 169 166 151 170 171 157 148 210 264 343 4 37 19 350 3 351 350 351 1 8 8 359 352 352 347 346 352 354 348 345 347 345 338 333 335 344 351 2